Starlink 30587

operational
NORAD ID: 58064 Int'l Des: 2023-158 Owner: SPXS Country: US Constellation: starlink
LEOCIRCULAR

关于 Starlink 30587

正在加载描述...

实时位置

正在加载3D地球...

即将过境

高度历史

Altitude vs Time

uPlot chart will show altitude changes over time

两行轨道根数

1 58064U 23158P 25260.05385675 -.00000625 00000-0 -31215-4 0 9997
2 58064 43.0016 253.6805 0000988 276.3128 83.7602 15.02531804107410
Epoch: Sep 17, 2025 • Age: 20 hours

当前状态

高度 570.4 km
速度 7.58 km/s
星下点 -39.52°S, 170.54°E
发射日期 Oct 13, 2023
运行时间 1.9 years
类型 internet

技术详情

分类 Payload
质量 730.00 kg
干质量 700.00 kg
总质量 730.00 kg
长度 0.30 m
直径 4.10 m
跨度 29.00 m
形状 Box + pan
制造商 SPXS
平台类型 Starlink V2M
阶段状态 In Orbit
所有者/国家 SPXS/US

大型星座

Loading constellations...